TimeCDT,TemperatureF,Dew PointF,Humidity,Sea Level PressureIn,VisibilityMPH,Wind Direction,Wind SpeedMPH,Gust SpeedMPH,PrecipitationIn,Events,Conditions,WindDirDegrees,DateUTC
12:38 AM,66.2,64.4,94,29.90,10.0,ENE,4.6,-,0.02,,Overcast,60,2013-05-02 05:38:00
12:53 AM,66.9,64.9,93,29.91,10.0,NE,5.8,-,0.02,,Overcast,50,2013-05-02 05:53:00
1:09 AM,66.2,64.4,94,29.90,10.0,NE,4.6,-,N/A,,Overcast,50,2013-05-02 06:09:00
1:23 AM,66.2,64.4,94,29.89,10.0,East,5.8,-,N/A,,Overcast,90,2013-05-02 06:23:00
1:42 AM,66.2,64.4,94,29.89,10.0,NE,5.8,-,N/A,,Overcast,50,2013-05-02 06:42:00
1:53 AM,66.0,64.9,96,29.90,7.0,NE,5.8,-,N/A,,Overcast,50,2013-05-02 06:53:00
2:53 AM,64.9,64.0,97,29.91,5.0,NE,6.9,-,0.00,,Overcast,40,2013-05-02 07:53:00
3:09 AM,64.4,64.4,100,29.89,7.0,NNE,6.9,-,N/A,,Overcast,30,2013-05-02 08:09:00
3:53 AM,64.9,64.0,97,29.91,10.0,Calm,Calm,-,0.00,Rain,Light Rain,0,2013-05-02 08:53:00
4:53 AM,64.9,64.0,97,29.92,10.0,NNE,3.5,-,0.00,,Overcast,30,2013-05-02 09:53:00
5:53 AM,64.9,63.0,93,29.92,10.0,North,6.9,-,N/A,,Overcast,10,2013-05-02 10:53:00
6:09 AM,64.4,62.6,94,29.92,10.0,North,4.6,-,N/A,,Overcast,360,2013-05-02 11:09:00
6:24 AM,64.4,62.6,94,29.92,10.0,NNW,5.8,-,N/A,,Overcast,340,2013-05-02 11:24:00
6:53 AM,64.9,63.0,93,29.94,10.0,North,6.9,-,N/A,,Overcast,10,2013-05-02 11:53:00
7:53 AM,66.0,64.0,93,29.96,10.0,North,5.8,-,N/A,,Overcast,360,2013-05-02 12:53:00
8:53 AM,66.0,64.0,93,29.98,6.0,North,6.9,-,N/A,,Overcast,10,2013-05-02 13:53:00
9:53 AM,66.9,64.9,93,29.98,10.0,North,5.8,-,0.00,,Overcast,360,2013-05-02 14:53:00
10:00 AM,66.2,64.4,94,29.97,10.0,NNW,6.9,-,N/A,,Overcast,340,2013-05-02 15:00:00
10:53 AM,69.1,64.0,84,29.99,10.0,NNE,8.1,-,N/A,,Overcast,20,2013-05-02 15:53:00
11:00 AM,69.8,64.4,83,29.98,10.0,North,8.1,-,N/A,,Overcast,10,2013-05-02 16:00:00
11:36 AM,71.6,64.4,78,29.98,10.0,North,8.1,-,N/A,,Overcast,10,2013-05-02 16:36:00
11:53 AM,71.1,64.0,78,29.99,10.0,North,8.1,-,N/A,,Overcast,350,2013-05-02 16:53:00
12:08 PM,71.6,64.4,78,29.97,10.0,North,8.1,-,N/A,,Overcast,10,2013-05-02 17:08:00
12:15 PM,71.6,64.4,78,29.97,10.0,North,11.5,-,N/A,,Overcast,350,2013-05-02 17:15:00
12:46 PM,71.6,64.4,78,29.97,10.0,NNW,9.2,-,N/A,,Overcast,340,2013-05-02 17:46:00
12:53 PM,71.1,63.0,75,29.97,10.0,North,8.1,-,N/A,,Overcast,350,2013-05-02 17:53:00
1:05 PM,69.8,62.6,78,29.97,10.0,NNW,8.1,-,0.00,Rain,Light Rain,340,2013-05-02 18:05:00
1:53 PM,69.1,64.0,84,29.98,10.0,NW,6.9,-,0.00,,Overcast,320,2013-05-02 18:53:00
2:53 PM,68.0,64.9,90,29.99,10.0,NNW,8.1,-,0.00,,Overcast,330,2013-05-02 19:53:00
3:53 PM,68.0,64.0,87,29.98,6.0,NNW,12.7,-,0.00,Rain,Light Rain,330,2013-05-02 20:53:00
4:06 PM,69.8,64.4,83,29.96,10.0,North,9.2,-,0.00,,Overcast,350,2013-05-02 21:06:00
4:32 PM,68.0,64.4,88,29.96,4.0,North,8.1,-,0.02,Rain,Light Rain,350,2013-05-02 21:32:00
4:53 PM,69.1,64.9,87,29.96,10.0,North,12.7,-,0.02,,Overcast,350,2013-05-02 21:53:00
5:00 PM,69.8,64.4,83,29.95,10.0,NNW,11.5,-,N/A,,Overcast,340,2013-05-02 22:00:00
5:20 PM,68.0,64.4,88,29.95,10.0,North,9.2,-,0.00,,Overcast,350,2013-05-02 22:20:00
5:45 PM,69.8,64.4,83,29.96,10.0,North,10.4,-,0.00,,Overcast,350,2013-05-02 22:45:00
5:53 PM,68.0,64.0,87,29.97,10.0,NNW,11.5,-,0.00,,Overcast,340,2013-05-02 22:53:00
6:06 PM,68.0,62.6,83,29.96,10.0,North,10.4,-,N/A,,Overcast,350,2013-05-02 23:06:00
6:26 PM,68.0,62.6,83,29.96,10.0,North,10.4,-,N/A,,Overcast,350,2013-05-02 23:26:00
6:53 PM,68.0,63.0,84,29.97,10.0,North,9.2,-,N/A,,Overcast,350,2013-05-02 23:53:00
7:34 PM,66.2,62.6,88,29.96,10.0,NNW,9.2,-,N/A,,Overcast,340,2013-05-03 00:34:00
7:51 PM,66.2,62.6,88,29.97,10.0,NNW,8.1,-,N/A,,Overcast,330,2013-05-03 00:51:00
7:53 PM,66.0,63.0,90,29.98,10.0,NNW,11.5,-,N/A,,Overcast,330,2013-05-03 00:53:00
8:01 PM,66.2,62.6,88,29.98,8.0,NNW,9.2,-,N/A,,Overcast,340,2013-05-03 01:01:00
8:53 PM,64.9,64.0,97,30.00,3.0,NNW,8.1,-,0.01,,Overcast,330,2013-05-03 01:53:00
9:53 PM,64.9,64.0,97,30.02,10.0,NW,13.8,-,0.00,,Overcast,320,2013-05-03 02:53:00
10:20 PM,57.2,57.2,100,30.02,2.5,WNW,18.4,25.3,0.03,Rain,Light Rain,300,2013-05-03 03:20:00
10:32 PM,57.2,55.4,94,30.02,3.0,NW,20.7,27.6,0.03,Rain,Light Rain,310,2013-05-03 03:32:00
10:53 PM,57.0,55.0,93,30.04,4.0,NW,20.7,31.1,0.04,Rain,Light Rain,320,2013-05-03 03:53:00
11:53 PM,55.0,54.0,96,30.04,9.0,NW,20.7,28.8,0.00,,Overcast,310,2013-05-03 04:53:00